Location: ??????????
(54.7560°N, 39.1389°E)
Time: 11:29:10
(UTC+00:00)

SPOT 5 - Pass Details

Date: 19 May 2025
Orbit: 619 x 804 km, 98.0° (Epoch: 14 June)

Event Time Altitude Azimuth Distance (km) Brightness Sun altitude
Rises 18:07:59 0° 187° (S) 2,913 5.6 -4.8°
Reaches altitude 10° 18:10:20 10° 197° (SSW) 1,998 4.9 -5.1°
Maximum altitude 18:14:18 35° 264° (W) 1,011 4.1 -5.5°
Drops below altitude 10° 18:18:17 10° 330° (NNW) 2,003 6.8 -5.9°
Sets 18:20:39 0° 340° (NNW) 2,922 7.5 -6.1°
